Simultaneous Nadir Overpasses (SNOs) Predictions

Prediction of SNOs between GOES-16 and TERRA Satellite Orbit:

Table of predicted SNOs for the next 14.0 days since TLE Epoch: 1/21/2023
Index Date Time (GOES-16) GOES-16 Lat,Lon TERRA Lat,Lon Distance(km) Time Diff (sec)
1 01/22/2023 15:13:21 0.01, -75.20 0.03, -75.20 3.22 80
2 01/24/2023 14:54:51 0.01, -75.22 -0.79, -71.37 436.76 80
3 01/25/2023 03:17:59 -0.02, -75.21 -0.26, -76.34 129.18 80
4 01/27/2023 02:59:28 -0.02, -75.23 0.54, -72.51 308.85 80
5 01/27/2023 15:22:27 0.02, -75.25 0.48, -77.45 249.51 80
6 01/29/2023 15:03:56 0.01, -75.29 -0.36, -73.62 189.38 80
7 01/30/2023 03:27:02 -0.02, -75.28 -0.74, -78.58 376.18 80
8 02/01/2023 03:08:32 -0.00, -75.32 0.13, -74.76 63.35 80
9 02/01/2023 15:31:29 0.00, -75.34 0.92, -79.69 494.78 80
10 02/03/2023 15:12:57 -0.01, -75.38 0.07, -75.86 54.47 80
